COSMOS 886 DEB *, 9798

Orbit data source: Space-Track

COSMOS 886 DEB *, 9798 is space debris in LEO originally from a launch on Mon, 27 Dec 1976 UTC launched from the Tyuratam Missile And Space Complex (TTMTR). Debris objects in space refer to the collection of defunct objects orbiting the Earth. Examples of debris include non-operational satellites, rocket bodies, and fragments generated from explosions, collisions, or faulty payload assembly.

Loading next visibility...
Identifier
9798, 1976-126Y
Orbit
LEO
Country
Flag of CISCIS
Related business
Manufacturer
Unknown
Mission
Spacecraft
Bus & Motor
Unknown
Mass
Unknown
Launch date (UTC)
1976-12-27 (49 years ago)
Launch vehicle
Unknown
Launch site
Tyuratam Missile And Space Complex (TTMTR)
Object type
Payload
Rocket body
Debris
Shape & HBR
Unknown shape, 0.2 m
Radar Cross Section
Medium (>0.1 m² and <1 m²)

Expand to show TLE details & history
Last TLE update: 11 hours ago

TLE from 11 hours ago
0 COSMOS 886 DEB *
1 09798U 76126Y   26175.16104997 -.00000012  00000-0  82233-4 0  9999
2 09798  65.7562 312.5847 0129002 175.7105 359.9111 13.61275604449333
Epoch: 2026-06-24T03:51Z
TLE epoch observation values (Epoch: 2026-06-24T03:51:54.717Z)
Latitude
3.92049°
Longitude
160.52515°
Altitude
937.014 km
Speed
7.431 km/s
True Right ascension
08h 43m 18s
True Declination
3° 53' 52"
Sunlit
Object was in daylight at epoch
Visualization orbit readout
Latitude
Unknown
Longitude
Unknown
Altitude
Unknown
Speed
Unknown
Apparent Right ascension
Unknown
Apparent Declination
Unknown
Sunlit
N/A
Visualization observer readout
Local Sidereal Time
01:45:48
Azimuth
Unknown
Elevation
Unknown
Doppler factor
Unknown
Orbital elements
Apogee altitude
1,125.157 km
Perigee altitude
934.034 km
Semi-major axis
7,407.733 km
Eccentricity
0.0129
Inclination
65.7562°
RAAN
312.5847°
Arg. of periapsis
175.7105°
True anomaly
359.90877°
Mean anomaly
359.9111°
Eccentric anomaly
359.90994°
Mean motion
3.4042 °/min
Orbital period
105.75 mins
BSTAR
0.000082233
Loading maneuver chart data...
Computing Atmospheric mass density...

Documentation

Showing up to 5 results
|